Weather in Chiganak

Russia / Saratov Oblast     51°46′41″N   43°19′13″E
temp.,
°C
wind,
m/s
gust,
m/s
humid.,
%
clouds,
%
prec.,
mm/h
press.,
hPa
HPBL,
m
18 may, tue
tue1801:00+19ese6174657 0.0 1012299
04:00+15ese5125515 0.0 1011152
07:00+16ese5126437 0.0 1011193
10:00+23ese61252100 0.0 1010407
13:00+27ese812445 0.0 1009917
16:00+28se813420 0.0 10091600
19:00+25e614525 0.0 1008362
22:00+20se613473 0.0 1008308
19 may, wed
wed1901:00+16wsw118967 0.0 100912
04:00+15wsw2391100 0.0 100942
07:00+17nw128919 0.0 100996
10:00+22se246052 0.0 1009649
13:00+26se57428 0.0 10081428
16:00+28sse594062 0.0 10072427
19:00+24s3561100 0.0 1007114
22:00+16wsw6108988 0.6 1009367
20 may, thu
thu2001:00+15ssw2596100 2.3 1010159
04:00+13ssw369699 2.3 1010235
07:00+14s3588100 0.3 1011358
10:00+17s4669100 0.3 1011972
13:00+18s7965100 0.3 10121442
16:00+18ssw697167 1.3 10121031
19:00+18ssw68725 0.3 1012846
22:00+14ssw35885 0.4 101488
21 may, fri
fri2101:00+12ssw37945 0.0 1014141
04:00+11ssw37945 0.0 1015145
07:00+13s498515 0.0 1016248
10:00+19ssw696896 0.1 1016796
13:00+21sw7958100 0.8 10171885
16:00+23sw5849100 0.8 10172120
19:00+22wsw2365100 0.1 1017108
22:00+16n3583100 0.3 101978
22 may, sat
sat2201:00+15ne5990100 0.5 1019189
04:00+14ene51090100 0.5 1019188
07:00+16ene4985100 0.0 1018244
10:00+22se6115775 0.0 1017616
13:00+26sse7114976 0.0 10171464
16:00+27sse71148100 0.0 10151847
19:00+24se4962100 0.0 1015239
22:00+20se41270100 0.0 1015204